Retour au catalogue

Z-Sat

Z-SAT

ActifRadio amateurSSO
NORAD 49399·PAYLOAD·🇯🇵 Japan

Lancé Nov 9, 2021 depuis Uchinoura Space Center

Loading…

Prochains Passages (prochaines 24 heures)

TLE

FraisSource: Space-Track

Époque: Sep 15, 2026, 00:15 UTC

1 49399U 21102E   26258.01080287  .00002471  00000-0  12151-3 0  9996
2 49399  97.3265 290.6135 0014728 296.4709  63.5015 15.18850600267079

Suivez Z-Sat en temps réel avec AllMySat

Download on the App Store